Regional Weather Roundup
Issued by NWS Nashville, TN

Home | Current Version | Previous Version | Text Only | Print | Product List | Glossary On
Versions: 1 2 3 4 5 6 7 8 9 10 11 12 13 14 15 16 17 18 19 20 21 22 23 24 25 26 27 28 29 30 31 32 33 34 35 36 37 38 39 40 41 42 43 44 45 46 47 48 49 50
000
ASUS44 KOHX 181515
RWROHX
MIDDLE TENNESSEE HOURLY WEATHER ROUNDUP
NATIONAL WEATHER SERVICE NASHVILLE TN
900 AM CST THU DEC 18 2014

NOTE: "FAIR" INDICATES FEW OR NO CLOUDS BELOW 12,000 FEET WITH
NO SIGNIFICANT WEATHER AND/OR OBSTRUCTIONS TO VISIBILITY.

* THESE REPORTS ARE NOT UNDER NWS QUALITY CONTROL AND MAY NOT
  REPORT WEATHER SUCH AS PRECIPITATION AND FOG.


TNZ005>011-023>034-057-059-062>066-078-080-181600
...NORTHERN MIDDLE TENNESSEE...

CITY           SKY/WX    TMP DP  RH WIND       PRES   REMARKS
CLARKSVILLE    CLOUDY    33  30  88 N6        30.27R FOG     WCI  28
CROSSVILLE     PTSUNNY   35  30  82 CALM      30.18R
GALLATIN       CLOUDY    32  32 100 N5        30.25S WCI  27
DICKSON        CLOUDY    30  28  93 E3        30.22R
LEBANON        CLOUDY    32  31  96 NE3       30.22S
NASHVILLE      CLOUDY    34  32  92 CALM      30.26R FOG
PORTLAND       CLOUDY    28  28 100 NE3       30.23S
SMYRNA         CLOUDY    35  33  92 NW5       30.27R WCI  31
SPARTA         MOSUNNY   34  34 100 CALM      30.20R
$$
TNZ056-058-060-061-075>077-079-093>097-181600
...SOUTHERN MIDDLE TENNESSEE...

CITY           SKY/WX    TMP DP  RH WIND       PRES   REMARKS
LEWISBURG      CLOUDY    34  31  89 CALM      30.23R
MCMINNVILLE    PTSUNNY   36  36 100 CALM      30.20R
MURFREESBORO   CLOUDY    34  32  92 N3        30.23S
SHELBYVILLE    CLOUDY    36  34  93 CALM      30.23R
TULLAHOMA      CLOUDY    34  30  86 CALM      30.21S
WINCHESTER     CLOUDY    36  32  87 CALM      30.22R
$$


...KEY TO REMARKS...
VSB - VISIBILITY IN MILES
WCI - WIND CHILL INDEX
HX  - HEAT INDEX




USA.gov is the U.S. government's official web portal to all federal, state and local government web resources and services.